Preview of NWS' New Version of Forecast
This preview is not operational and should not be used for support decisions.

Regional Weather Roundup (RWR)

Issued by National Weather Service (NWS)

                            
000
ASPQ40 PGUM 192310
RWRPQ 
WEATHER ROUNDUP FOR THE MARIANAS AND MICRONESIA
NATIONAL WEATHER SERVICE TIYAN GU
900 AM CHST TUE AUG 20 2019

GUZ001>004-200000-
MARIANA ISLANDS-
  
CITY           SKY/WX    TMP DP  RH WIND       PRES   REMARKS
GUAM AIRPORT   SUNNY     82  75  78 S6        29.85S                  
ANDERSEN AFB   PTSUNNY   82  77  83 S6        29.86R HX  91           
ROTA AIRPORT   MOSUNNY   81  75  83 S12       29.82R                  
TINIAN AP      MOSUNNY   84  75  74 SW14      29.82R HX  92           
SAIPAN AP      MOSUNNY   84  77  79 S13       29.84R HX  94           

$$

PMZ161-200000-
REPUBLIC OF PALAU-
  
CITY           SKY/WX    TMP DP  RH WIND       PRES   REMARKS
KOROR AP       CLOUDY    82  75  78 SW6       29.81                   
KOROR WSO      NOT AVBL                                               

$$

PMZ171>174-200000-
FEDERATED STATES OF MICRONESIA-
  
CITY           SKY/WX    TMP DP  RH WIND       PRES   REMARKS
YAP AIRPORT    CLOUDY    82  75  78 SW9       29.79R                  
CHUUK AP       PTSUNNY   84  79  84 VRB5      29.83S HX  96           
POHNPEI AP     CLOUDY    88  79  74 W8        29.79S HX 102           
POHNPEI WSO    PTSUNNY   86  79  79 S3        29.83F HX  99           
KOSRAE AP      PTSUNNY   88  77  70 N7        29.79S HX 100           

$$

PMZ181-200000-
REPUBLIC OF THE MARSHALL ISLANDS-
  
CITY           SKY/WX    TMP DP  RH WIND       PRES   REMARKS
KWAJALEIN AP   SUNNY     86  77  74 SE3       29.80S HX  97           
MAJURO AP      PTSUNNY   84  77  79 SE10      29.82F HX  94           
MAJURO WSO     PTSUNNY   86  77  74 S3        29.80F HX  97           

$$